Home > Time Zones > World Clock > Weather > Ghana > Accra > Past weeks

Flag for Ghana Weather past 2 weeks in Accra, Ghana

Now
77 °F

Passing clouds.


Feels Like: 78 °F
Forecast: 78 / 87 °F
Wind: 7 mph from West

Location: Accra Airport

Current Time: Dec 22, 2014 at 2:13:49 AM

Latest Report: Dec 22, 2014 at 1:00 AM


Visibility: N/A

Pressure: 29.89 "Hg

Humidity: 89%

Dew point: 73 °F

Location of AccraLocation

Historic Weather in Accra — Graph

°F

Accra temperature yesterday

Maximum temperature yesterday: 90 °F (at 1:00 PM)
Minimum temperature yesterday: 79 °F (at 12:00 AM)
Average temperature yesterday: 82 °F

Past Weeks' High & Low Weather Summary

 TemperatureHumidityPressure
High90 °F (Dec 10, 12:00 PM)100% (Dec 16, 5:00 AM)29.95 "Hg (Dec 16, 5:00 AM)
Low77 °F (Dec 7, 4:00 AM)52% (Dec 14, 11:00 AM)29.77 "Hg (Dec 8, 4:00 PM)
Average82 °F81%29.87 "Hg
* Reported Midnight between Dec 6 and Dec 7 — Midnight between Dec 21 and Dec 22, Accra, Weather by CustomWeather, © 2014

Note: Actual official high and low records may vary slightly from our data, if they occured in-between our weather recording intervals... More about our weather records

Advertising

Accra weather history for previous 24 hours

 ConditionsComfort  
Time TempWeatherWind HumidityBarometerVisibility
12:00 AM
Dec 22
77 °FClear.6 mph89%29.92 "Hg6 mi
10:00 PM
Dec 21
79 °FPassing clouds.6 mph79%29.92 "HgN/A
9:00 PM79 °FClear.7 mph79%29.92 "Hg10 mi
8:00 PM79 °FClear.8 mph84%29.92 "Hg10 mi
6:47 PM81 °FPassing clouds.9 mph84%29.89 "HgN/A
4:51 PM84 °FPassing clouds.9 mph70%29.83 "HgN/A
4:01 PM81 °FPartly sunny.10 mph74%29.83 "HgN/A
3:00 PM88 °FSunny.15 mph66%29.83 "Hg10 mi
1:49 PM88 °FScattered clouds.15 mph66%29.83 "HgN/A
1:00 PM90 °FPassing clouds.9 mph63%29.86 "HgN/A
12:00 PM88 °FBroken clouds.8 mph66%29.92 "HgN/A
10:47 AM88 °FPassing clouds.8 mph62%29.92 "HgN/A
9:54 AM84 °FSunny.10 mph74%29.95 "Hg10 mi
9:00 AM82 °FSunny.9 mph79%29.95 "Hg10 mi
8:00 AM81 °FClear.10 mph84%29.92 "Hg5 mi
7:00 AM79 °FClear.8 mph89%29.89 "Hg5 mi
6:00 AM79 °FClear.8 mph89%29.86 "Hg10 mi
5:00 AM79 °FPassing clouds.8 mph84%29.86 "HgN/A
4:00 AM79 °FClear.8 mph84%29.86 "Hg10 mi
3:00 AM79 °FClear.7 mph84%29.86 "Hg10 mi
2:00 AM79 °FClear.7 mph79%29.89 "Hg10 mi
Weather by CustomWeather, © 2014

See weather overviewHow to use our weather pages